Flag for U.S.A. Weather past 2 weeks in Denver, Colorado, U.S.A.

Now
70 °F

Scattered clouds.


Feels Like: 77 °F
Forecast: 56 / 76 °F
Wind: 10 mph from Southeast

Location: Buckley Air Force Base

Current Time: Sep 19, 2014 at 8:11:51 PM

Latest Report: Sep 19, 2014 at 7:58 PM


Visibility: 10 mi

Pressure: 29.82 "Hg

Humidity: 38%

Dew point: 43 °F

Location of DenverLocation

Historic Weather in Denver — Graph

°F

Denver temperature yesterday

Maximum temperature yesterday: 87 °F (at 4:58 PM)
Minimum temperature yesterday: 55 °F (at 6:58 AM)
Average temperature yesterday: 71 °F

Past Weeks' High & Low Weather Summary

 TemperatureHumidityPressure
High88 °F (Sep 17, 3:58 PM)100% (Sep 6, 4:58 AM)30.51 "Hg (Sep 6, 4:58 AM)
Low32 °F (Sep 12, 5:58 AM)14% (Sep 14, 1:58 PM)29.66 "Hg (Sep 9, 12:58 PM)
Average61 °F60%30.01 "Hg
* Reported Sep 4 6:58 PM — Sep 19 6:58 PM, Denver, Weather by CustomWeather, © 2014

Note: Actual official high and low records may vary slightly from our data, if they occured in-between our weather recording intervals... More about our weather records

Advertising

Denver weather history for previous 24 hours

 ConditionsComfort  
Time TempWeatherWind HumidityBarometerVisibility
6:58 PM
Sep 19
74 °FScattered clouds.8 mph34%29.80 "Hg10 mi
5:58 PM80 °FPartly sunny.7 mph27%29.76 "Hg10 mi
4:58 PM86 °FScattered clouds.10 mph20%29.74 "Hg10 mi
3:58 PM86 °FPassing clouds.5 mph20%29.74 "Hg10 mi
2:58 PM84 °FPassing clouds.6 mph22%29.76 "Hg10 mi
1:58 PM84 °FPassing clouds.2 mph22%29.78 "Hg10 mi
12:58 PM82 °FPassing clouds.8 mph23%29.80 "Hg10 mi
11:58 AM80 °FPassing clouds.10 mph25%29.82 "Hg10 mi
10:58 AM76 °FPassing clouds.12 mph29%29.83 "Hg10 mi
9:58 AM77 °FPassing clouds.8 mph26%29.80 "Hg10 mi
8:58 AM72 °FPassing clouds.9 mph30%29.79 "Hg10 mi
7:58 AM67 °FPassing clouds.9 mph32%29.79 "Hg10 mi
6:58 AM64 °FPassing clouds.15 mph33%29.77 "Hg10 mi
5:58 AM64 °FClear.15 mph35%29.74 "Hg10 mi
4:58 AM67 °FClear.17 mph27%29.72 "Hg10 mi
3:58 AM64 °FClear.16 mph33%29.72 "Hg10 mi
2:58 AM63 °FClear.16 mph35%29.74 "Hg10 mi
1:58 AM67 °FClear.15 mph32%29.75 "Hg10 mi
12:58 AM70 °FClear.16 mph29%29.75 "Hg10 mi
11:58 PM
Sep 18
68 °FClear.22 mph36%29.75 "Hg10 mi
10:58 PM71 °FClear.23 mph33%29.74 "Hg10 mi
9:58 PM72 °FClear.18 mph28%29.75 "Hg10 mi
8:58 PM73 °FClear.15 mph23%29.76 "Hg10 mi
Weather by CustomWeather, © 2014

See weather overviewHow to use our weather pages